ATLAS 5 CENTAUR DEB, 43980

Orbit data source: Space-Track

ATLAS 5 CENTAUR DEB, 43980 is space debris in HEO originally from a launch on Wed, 17 Sep 2014 UTC launched from the Air Force Eastern Test Range (AFETR). Debris objects in space refer to the collection of defunct objects orbiting the Earth. Examples of debris include non-operational satellites, rocket bodies, and fragments generated from explosions, collisions, or faulty payload assembly.

Loading next visibility...
ATLAS 5 CENTAUR DEB details
Identifier
43980, 2014-055AK
Orbit
HEO
Last TLE update18 hours ago
Origin
Flag of USULA (US)
ManufacturerUnknown
MissionSpacecraft
Bus & MotorUnknown
MassUnknown
Launch date (UTC)
2014-09-17 (10 years ago)
Launch vehicleUnknown
Launch site
Air Force Eastern Test Range (AFETR)
Object type
Payload
Rocket body
Debris
Shape & HBRUnknown
Radar Cross SectionMedium (>0.1 m² and <1 m²)

Expand to show TLE details & history

TLE from 18 hours ago
0 ATLAS 5 CENTAUR DEB
1 43980U 14055AK  25039.89631130 -.00000006  00000-0  00000+0 0  9995
2 43980  19.5357 195.5615 4863634  71.7565 333.9966  1.83787136 43104
Epoch: 2025-02-08T21:30Z
Definitive object data (Epoch: 2025-02-08T21:30:41.296Z)
Latitude
Longitude93.55031°
Altitude12,296.604 km
Speed5.341 km/s
True Right ascension13h 01m 50s
True Declination0° 00' 00"
Sunlit
Object was in daylight at TLE epoch
Visualization TLE readout
Latitude-13.99844°
Longitude-41.90496°
Altitude31,869.338 km
Speed2.586 km/s
Apparent Right ascension04h 14m 29s
Apparent Declination-17° 50' 58"
Sunlit
Object is in daylight
Visualization observer readout
Local Sidereal Time18:08:43
Azimuth56.483° ENE
Elevation-56.922°
Doppler factor1
Orbital elements
Apogee altitude35,470.419 km
Perigee altitude8,083.3 km
Semi-major axis28,154.996 km
Eccentricity0.4863634
Inclination19.5357°
RAAN195.5615°
Arg. of periapsis71.7565°
True anomaly288.23781°
Mean anomaly333.9966°
Eccentric anomaly313.92612°
Mean motion0.45942 °/min
BSTARUnknown
Orbital period783.6 mins
Loading maneuver chart data...

ATLAS 5 CENTAUR DEB Visibility forecast

Observer location: undefined°, undefined

Span
Click to sort rows by Start time (UTC) header in descending order
Start Az.
Max El. time (UTC)
Max El. Az.
Max El.
End time (UTC)
End Az.
157 mins2025-02-10 02:18:14.080Z248.695° W2025-02-10 03:17:14.080Z235.868° WSW12.952°2025-02-10 04:55:14.080Z230.581° WSW
115 mins2025-02-10 12:09:14.080Z232.003° WSW2025-02-10 13:23:14.080Z163.907° S36.272°2025-02-10 14:04:14.080Z94.549° ESE
|